Yatton Keynell, United Kingdom

10:22 PM BST on April 24, 2019 (GMT +0100)
Yatton Keynell

Weather History for 03740 - August, 2009

Change the Weather History Date:

Sunday, August 2, 2009

  Actual Average Record
Temperature  
Mean Temperature 58 °F -  
Max Temperature 67 °F 68 °F - ()
Min Temperature 50 °F 53 °F - ()
Degree Days  
Heating Degree Days 6    
Growing Degree Days 8 (Base 50)    
Moisture  
Dew Point 50 °F    
Average Humidity 76    
Maximum Humidity 100    
Minimum Humidity 39    
Precipitation  
Precipitation 0.00 in 0.08 in - ()
Sea Level Pressure  
Sea Level Pressure 29.91 in    
Wind  
Wind Speed 7 mph ()    
Max Wind Speed 13 mph    
Max Gust Speed -    
Visibility 8.0 miles    
Events Fog    
T = Trace of Precipitation, MM = Missing Value Source: Averaged Metar Reports

Daily Weather History Graph

Daily Weather History Graph

Search for Another Location

Airport or City:

Astronomy

Aug. 02, 2009 Rise Set
Actual Time 5:33 AM BST 8:54 PM BST
Civil Twilight 4:52 AM BST 9:34 PM BST
Nautical Twilight 3:58 AM BST 10:27 PM BST
Astronomical Twilight 2:44 AM BST 11:40 PM BST
Moon 7:13 PM BST (8/2) 1:33 AM BST (8/2)
Length of Visible Light 16h 41m
Length of Day
15h 20m
Waxing Gibbous, 89% of the Moon is Illuminated
Aug 2
Waxing Gibbous
Aug 6
Full
Aug 13
Last Quarter
Aug 20
New
Aug 27
First Quarter

Hourly Weather History & Observations

Time (BST) Temp. Dew Point Humidity Pressure Visibility Wind Dir Wind Speed Gust Speed Precip Events Conditions
12:50 AM 54 °F 53 °F 97% 29.84 in 12 mi West 6.9 mph - -   Scattered Clouds
12:50 AM 53.6 °F 53.6 °F 100% 29.83 in - West 6.9 mph - N/A   Clear
1:50 AM 53.6 °F 51.8 °F 94% 29.83 in - WSW 8.1 mph - N/A   Clear
2:50 AM 53.6 °F 51.8 °F 94% 29.86 in 6.2 mi SW 6.9 mph - N/A   Partly Cloudy
3:50 AM 51 °F 51 °F 98% 29.87 in 7 mi SW 6.9 mph - -  
3:50 AM 51.8 °F 50.0 °F 94% 29.86 in - SW 6.9 mph - N/A   Clear
4:50 AM 51.8 °F 50.0 °F 94% 29.86 in 5.0 mi WSW 8.1 mph - N/A   Partly Cloudy
5:38 AM 51.8 °F 50.0 °F 94% 29.86 in 6.2 mi WSW 8.1 mph - N/A Fog Partly Cloudy
5:50 AM 50.0 °F 50.0 °F 100% 29.86 in 6.2 mi WSW 8.1 mph - N/A Fog Partly Cloudy
6:50 AM 52 °F 51 °F 93% 29.89 in 16 mi WSW 9.2 mph - -   Scattered Clouds
6:50 AM 51.8 °F 50.0 °F 94% 29.86 in 6.2 mi WSW 9.2 mph - N/A   Partly Cloudy
7:50 AM 53.6 °F 51.8 °F 94% 29.89 in - SW 5.8 mph - N/A   Clear
8:50 AM 57.2 °F 53.6 °F 88% 29.89 in 6.2 mi West 6.9 mph - N/A   Scattered Clouds
9:50 AM 60 °F 51 °F 64% 29.91 in 19 mi West 10.4 mph - -   Scattered Clouds
9:50 AM 60.8 °F 51.8 °F 72% 29.92 in 6.2 mi West 10.4 mph - N/A   Mostly Cloudy
10:50 AM 60.8 °F 44.6 °F 55% 29.92 in 6.2 mi WNW 12.7 mph - N/A   Mostly Cloudy
11:50 AM 60.8 °F 42.8 °F 52% 29.92 in 6.2 mi West 11.5 mph - N/A   Mostly Cloudy
12:35 PM 64.4 °F 44.6 °F 49% 29.92 in 6.2 mi West 9.2 mph - N/A   Mostly Cloudy
12:50 PM 65 °F 46 °F 39% 29.94 in 25 mi West 12.7 mph - -   Mostly Cloudy
12:50 PM 64.4 °F 46.4 °F 52% 29.92 in 6.2 mi West 12.7 mph - N/A   Mostly Cloudy
1:50 PM 62.6 °F 44.6 °F 52% 29.95 in 6.2 mi West 11.5 mph - N/A   Mostly Cloudy
2:50 PM 66.2 °F 46.4 °F 49% 29.92 in 6.2 mi West 11.5 mph - N/A   Mostly Cloudy
3:50 PM 65 °F 48 °F 43% 29.94 in 25 mi West 9.2 mph - -   Mostly Cloudy
3:50 PM 64.4 °F 48.2 °F 56% 29.92 in 6.2 mi West 9.2 mph - N/A   Mostly Cloudy
4:50 PM 62.6 °F 48.2 °F 59% 29.95 in 6.2 mi WSW 10.4 mph - N/A   Mostly Cloudy
5:50 PM 62.6 °F 51.8 °F 68% 29.95 in 6.2 mi SW 10.4 mph - N/A   Mostly Cloudy
6:50 PM 62 °F 51 °F 59% 29.94 in 25 mi SSW 6.9 mph - -   Scattered Clouds
6:50 PM 62.6 °F 51.8 °F 68% 29.95 in 6.2 mi SSW 6.9 mph - N/A   Mostly Cloudy
7:50 PM 60.8 °F 53.6 °F 77% 29.95 in 6.2 mi SSW 5.8 mph - N/A   Mostly Cloudy
8:50 PM 59.0 °F 51.8 °F 77% 29.95 in - SSW 5.8 mph - N/A   Clear
9:50 PM 56 °F 53 °F 84% 29.98 in 19 mi South 3.5 mph - -   Scattered Clouds
9:50 PM 57.2 °F 51.8 °F 82% 29.98 in - South 3.5 mph - N/A   Clear
10:50 PM 55.4 °F 51.8 °F 88% 29.98 in - South 4.6 mph - N/A   Clear
11:50 PM 55.4 °F 51.8 °F 88% 29.95 in - South 4.6 mph - N/A   Clear